Waarnemingen

Advertentie
Mijn weer
Stornoway, Groot Brittannië (3026): temperatuur & dauwpunt: 18.01.2018 11:00:00 - 24.01.2018 11:00:00 (GMT)Stornoway, Groot Brittannië (3026): windsnelheid & windstoten: 18.01.2018 11:00:00 - 24.01.2018 11:00:00 (GMT)Stornoway, Groot Brittannië (3026): windrichting: 18.01.2018 11:00:00 - 24.01.2018 11:00:00 (GMT)Stornoway, Groot Brittannië (3026): luchtdruk: 18.01.2018 11:00:00 - 24.01.2018 11:00:00 (GMT)Stornoway, Groot Brittannië (3026): zicht: 18.01.2018 11:00:00 - 24.01.2018 11:00:00 (GMT)Stornoway, Groot Brittannië (3026): Zonneschijnduur: 18.01.2018 11:00:00 - 24.01.2018 11:00:00 (GMT)Stornoway, Groot Brittannië (3026): neerslag: 18.01.2018 11:00:00 - 24.01.2018 11:00:00 (GMT)
Datum & Tijd tt [°C] td [°C] ff [km/u] ff [kn] fx [km/u] fx [kn] dd ppp [hPa] vv [km] sd [min] rr [mm]
24.01.2018 11:00:00 6,3 4,7 29 16 50 27 W 967,7 16 0 0,0
24.01.2018 10:00:00 4,7 3,8 29 16 76 41 W 965,6 16 0 0,2
24.01.2018 09:00:00 5,4 4,2 59 32 100 54 ZW 960,2 23 0 1,4
24.01.2018 08:00:00 5,9 4,2 52 28 87 47 Z 965,7 6 0 0,2
24.01.2018 07:00:00 6,2 3,9 37 20 70 38 ZZW 969,4 21 0 0,6
24.01.2018 06:00:00 5,5 3,7 50 27 76 41 Z 971,7 7 0 2,2
24.01.2018 05:00:00 5,3 4,0 37 20 54 29 OZO 974,6 5 0 2,6
24.01.2018 04:00:00 5,6 4,1 35 19 50 27 OZO 978,0 5 0 1,2
24.01.2018 03:00:00 5,8 4,2 39 21 55 30 ZO 981,8 11 0 0,4
24.01.2018 02:00:00 7,1 5,6 35 19 46 25 ZZO 984,9 12 0 0,2
24.01.2018 01:00:00 7,2 4,9 28 15 - - Z 987,7 15 0 0,0
24.01.2018 00:00:00 6,4 4,0 16 9 - - Z 989,3 16 - 0,0
23.01.2018 23:00:00 5,6 3,0 18 10 - - ZZW 990,5 22 0 0,0
23.01.2018 22:00:00 5,3 2,9 28 15 - - ZW 991,1 26 0 0,0
23.01.2018 21:00:00 4,6 2,4 28 15 - - ZW 991,5 28 0 0,0
23.01.2018 20:00:00 5,0 3,3 29 16 48 26 ZW 991,1 30 0 0,8
23.01.2018 19:00:00 5,1 3,2 37 20 68 37 W 990,8 10 0 1,2
23.01.2018 18:00:00 5,3 3,7 39 21 63 34 ZZW 989,7 22 0 2,2
23.01.2018 17:00:00 6,0 4,1 28 15 - - ZW 989,4 22 0 0,2
23.01.2018 16:00:00 5,1 3,7 26 14 78 42 WZW 989,8 27 0 1,6
23.01.2018 15:00:00 7,3 4,9 18 10 48 26 ZZW 989,6 15 0 0,0
23.01.2018 14:00:00 8,7 5,0 35 19 55 30 ZW 989,9 23 42 0,0
23.01.2018 13:00:00 8,2 5,5 26 14 - - ZW 990,0 45 24 0,4
23.01.2018 12:00:00 8,3 7,0 21 11 - - Z 990,3 45 6 0,0
23.01.2018 11:00:00 7,0 5,9 21 11 - - ZZW 990,6 20 0 2,2
23.01.2018 10:00:00 8,0 7,1 24 13 - - ZZW 990,8 8 0 0,4
23.01.2018 09:00:00 8,6 8,1 21 11 - - Z 991,0 12 0 0,2
23.01.2018 08:00:00 8,5 7,9 21 11 - - Z 992,1 12 0 0,0
23.01.2018 07:00:00 8,4 7,9 18 10 - - Z 992,8 20 0 0,2
23.01.2018 06:00:00 8,8 8,2 34 18 59 32 ZZW 993,6 3,1 0 0,4
23.01.2018 05:00:00 8,8 8,2 44 24 61 33 ZZW 993,9 8 0 0,0
23.01.2018 04:00:00 8,5 7,9 37 20 61 33 ZZW 994,6 7 0 0,2
23.01.2018 03:00:00 8,3 7,7 42 23 65 35 Z 995,6 6 0 0,2
23.01.2018 02:00:00 8,2 7,4 41 22 67 36 ZZW 996,5 12 0 1,8
23.01.2018 01:00:00 8,3 7,2 41 22 63 34 Z 997,4 9 0 0,0
23.01.2018 00:00:00 8,5 7,5 46 25 68 37 ZZW 998,1 11 - 0,2
22.01.2018 23:00:00 8,5 7,7 42 23 61 33 ZZW 999,0 4,4 0 0,2
22.01.2018 22:00:00 8,1 7,3 31 17 46 25 ZZW 999,7 6 0 0,2
22.01.2018 21:00:00 7,8 6,4 29 16 50 27 ZZW 1000,6 13 0 0,0
22.01.2018 20:00:00 7,1 4,6 24 13 - - ZZW 1001,1 20 0 0,0
22.01.2018 19:00:00 6,5 4,7 24 13 - - ZZW 1001,8 17 0 0,0
22.01.2018 18:00:00 6,3 5,3 13 7 - - WZW 1002,2 9 0 0,0
22.01.2018 17:00:00 6,3 5,2 26 14 - - WZW 1002,2 17 0 0,0
22.01.2018 16:00:00 7,0 4,9 21 11 - - WZW 1001,3 12 0 0,0
22.01.2018 15:00:00 7,2 3,6 22 12 - - ZW 1000,8 18 0 0,0
22.01.2018 14:00:00 7,6 4,6 35 19 50 27 W 1000,0 12 42 0,2
22.01.2018 13:00:00 7,0 4,6 31 17 59 32 WZW 999,3 17 18 0,0
22.01.2018 12:00:00 7,0 5,0 31 17 48 26 WZW 998,4 13 18 0,0
22.01.2018 11:00:00 6,5 5,0 35 19 50 27 WZW 997,5 12 0 0,4
22.01.2018 10:00:00 6,3 4,9 31 17 - - WZW 996,7 8 0 0,0
22.01.2018 09:00:00 6,0 4,7 28 15 - - WZW 995,8 11 0 0,0
22.01.2018 08:00:00 5,7 4,5 26 14 - - WZW 994,9 17 0 0,4
22.01.2018 07:00:00 5,6 4,6 26 14 - - WZW 994,4 4,6 0 1,2
22.01.2018 06:00:00 5,4 4,1 26 14 - - ZW 993,8 11 0 0,6
22.01.2018 05:00:00 5,1 3,8 24 13 - - WZW 993,5 12 0 0,4
22.01.2018 04:00:00 5,1 3,5 26 14 - - ZW 993,1 10 0 0,0
22.01.2018 03:00:00 4,9 2,9 26 14 - - ZW 992,8 25 0 0,0
22.01.2018 02:00:00 4,6 3,2 22 12 - - ZW 992,5 16 0 0,2
22.01.2018 01:00:00 4,5 3,4 22 12 - - ZW 992,5 16 0 0,0
22.01.2018 00:00:00 4,2 3,2 16 9 - - WZW 992,4 5 - 0,6
21.01.2018 23:00:00 4,9 3,3 28 15 - - ZW 992,1 10 0 0,2
21.01.2018 22:00:00 4,8 3,7 21 11 - - ZW 991,8 12 0 0,2
21.01.2018 21:00:00 5,3 4,2 24 13 - - WZW 991,4 5 0 0,0
21.01.2018 20:00:00 5,2 4,4 28 15 - - ZW 990,8 6 0 0,2
21.01.2018 19:00:00 5,1 4,3 24 13 46 25 ZW 990,2 12 0 0,2
21.01.2018 18:00:00 5,6 4,9 39 21 67 36 Z 989,7 7 0 0,6
21.01.2018 17:00:00 4,6 4,0 39 21 54 29 ZZO 990,5 7 0 0,6
21.01.2018 16:00:00 3,3 2,7 29 16 46 25 ZO 991,8 4,1 0 0,8
21.01.2018 15:00:00 2,3 1,5 37 20 48 26 ZO 993,3 3,5 0 0,6
21.01.2018 14:00:00 1,8 0,5 29 16 - - ZO 995,9 6 0 0,6
21.01.2018 13:00:00 2,9 -1,6 34 18 46 25 ZZO 997,9 17 0 3,4
21.01.2018 12:00:00 3,9 -2,6 26 14 - - ZO 1000,1 50 0 0,4
21.01.2018 11:00:00 3,9 -2,8 31 17 - - ZO 1001,9 50 0 0,0
21.01.2018 10:00:00 3,2 -1,1 24 13 - - OZO 1003,3 40 0 0,0
21.01.2018 09:00:00 3,7 -1,3 24 13 - - OZO 1005,0 50 0 0,0
21.01.2018 08:00:00 3,8 -1,2 24 13 - - ZO 1005,8 50 0 0,0
21.01.2018 07:00:00 3,0 -0,4 21 11 - - OZO 1006,0 50 0 0,0
21.01.2018 06:00:00 3,8 -0,1 24 13 - - ZZO 1006,8 50 0 0,0
21.01.2018 05:00:00 -0,4 -1,8 5 3 - - NO 1008,0 45 0 0,0
21.01.2018 04:00:00 -2,6 -4,2 5 3 - - WNW 1008,6 50 0 0,0
21.01.2018 03:00:00 -2,0 -3,8 2 1 - - WNW 1008,9 50 0 0,0
21.01.2018 02:00:00 -1,5 -3,4 4 2 - - W 1009,2 50 0 0,0
21.01.2018 01:00:00 -2,0 -3,7 4 2 - - W 1009,2 50 0 0,0
21.01.2018 00:00:00 -2,0 -3,1 2 1 - - W 1008,8 50 - 0,0
20.01.2018 23:00:00 -2,4 -3,6 8 4 - - W 1008,6 50 0 0,0
20.01.2018 22:00:00 -2,3 -3,5 8 4 - - W 1008,2 40 0 0,0
20.01.2018 21:00:00 -1,7 -3,1 5 3 - - WZW 1007,8 50 0 0,0
20.01.2018 20:00:00 -1,2 -2,5 8 4 - - WZW 1007,3 45 0 0,0
20.01.2018 19:00:00 -0,2 -1,9 11 6 - - WZW 1006,7 28 0 0,0
20.01.2018 18:00:00 -2,7 -4,5 4 2 - - WNW 1005,6 50 0 0,0
20.01.2018 17:00:00 -1,9 -3,7 9 5 - - W 1004,6 45 6 0,0
20.01.2018 16:00:00 -0,6 -2,4 8 4 - - WNW 1003,5 50 42 0,0
20.01.2018 15:00:00 0,8 -1,3 11 6 - - W 1002,6 22 48 0,0
20.01.2018 14:00:00 0,5 -2,0 13 7 - - W 1001,6 45 54 0,0
20.01.2018 13:00:00 0,5 -1,3 8 4 - - W 1000,7 40 60 0,0
20.01.2018 12:00:00 -1,0 -2,5 9 5 - - WZW 1000,1 35 60 0,0
20.01.2018 11:00:00 -1,6 -2,4 0 0 - - N 999,3 30 60 0,0
20.01.2018 10:00:00 -2,5 -3,1 0 0 - - N 998,8 30 12 0,0
20.01.2018 09:00:00 -2,7 -3,2 0 0 - - N 998,1 45 0 0,0
20.01.2018 08:00:00 -2,8 -3,3 0 0 - - N 997,3 45 0 0,0
20.01.2018 07:00:00 -2,8 -3,4 0 0 - - N 996,8 45 0 0,0
20.01.2018 06:00:00 -1,6 -2,1 0 0 - - N 996,4 35 0 0,0
20.01.2018 05:00:00 -1,4 -1,8 0 0 - - N 996,0 29 0 0,0
20.01.2018 04:00:00 -0,9 -1,4 0 0 - - N 995,9 50 0 0,0
20.01.2018 03:00:00 -0,5 -1,2 2 1 - - ZW 996,1 50 0 0,0
20.01.2018 02:00:00 0,5 -0,3 11 6 - - WZW 996,4 17 0 0,0
20.01.2018 01:00:00 -0,4 -1,5 13 7 - - WZW 995,9 50 0 0,0
20.01.2018 00:00:00 -0,6 -1,7 18 10 - - WZW 995,6 50 - 0,0
19.01.2018 23:00:00 -0,2 -1,2 16 9 - - WZW 995,5 50 0 0,0
19.01.2018 22:00:00 0,4 -0,5 16 9 - - ZW 995,3 50 0 0,0
19.01.2018 21:00:00 0,6 -0,2 16 9 - - ZW 995,4 50 0 0,0
19.01.2018 20:00:00 -0,3 -1,5 0 0 - - N 995,0 50 0 0,0
19.01.2018 19:00:00 -0,5 -1,2 13 7 - - ZW 994,9 45 0 0,0
19.01.2018 18:00:00 0,7 0,2 16 9 - - ZW 995,0 28 0 0,0
19.01.2018 17:00:00 0,2 -0,3 11 6 - - WZW 994,8 35 0 0,0
19.01.2018 16:00:00 0,6 0,1 16 9 - - W 994,4 45 0 0,0
19.01.2018 15:00:00 0,9 0,4 13 7 - - ZW 994,0 8 6 0,0
19.01.2018 14:00:00 0,3 -0,4 4 2 - - WZW 994,1 30 0 0,0
19.01.2018 13:00:00 1,0 -0,2 15 8 - - WZW 993,9 40 18 0,2
19.01.2018 12:00:00 1,2 -0,1 15 8 - - WZW 994,2 50 0 0,0
19.01.2018 11:00:00 1,0 0,1 16 9 - - WZW 994,0 40 0 0,0
19.01.2018 10:00:00 1,0 0,2 15 8 - - ZZW 993,9 9 0 0,0
19.01.2018 09:00:00 1,3 0,2 16 9 - - ZW 993,6 40 0 0,0
19.01.2018 08:00:00 1,2 -0,3 18 10 - - ZW 993,3 50 0 0,0
19.01.2018 07:00:00 1,2 -0,4 15 8 - - ZZW 993,1 50 0 0,0
19.01.2018 06:00:00 0,7 -0,2 15 8 - - ZZW 993,4 50 0 0,0
19.01.2018 05:00:00 0,7 0,2 16 9 - - ZZW 993,7 40 0 0,0
19.01.2018 04:00:00 -0,2 -0,9 11 6 - - ZZW 993,7 50 0 0,0
19.01.2018 03:00:00 1,1 -1,0 21 11 - - WZW 994,3 45 0 0,0
19.01.2018 02:00:00 0,2 -1,4 15 8 - - WZW 994,0 50 0 0,0
19.01.2018 01:00:00 0,6 -0,7 15 8 - - ZZW 994,2 45 0 0,0
19.01.2018 00:00:00 0,7 -1,3 16 9 - - ZW 994,0 50 - 0,0
18.01.2018 23:00:00 0,4 -0,7 13 7 - - ZW 994,3 50 0 0,0
18.01.2018 22:00:00 0,5 -0,1 15 8 - - ZW 994,4 50 0 0,0
18.01.2018 21:00:00 0,8 0,3 13 7 - - ZZW 994,4 50 0 0,0
18.01.2018 20:00:00 0,9 0,4 16 9 - - ZW 994,6 50 0 0,2
18.01.2018 19:00:00 0,5 -0,4 11 6 - - WZW 994,7 1,8 0 0,0
18.01.2018 18:00:00 1,1 -0,4 18 10 - - W 994,2 40 0 0,0
18.01.2018 17:00:00 1,9 0,3 22 12 - - W 993,7 35 0 0,0
18.01.2018 16:00:00 2,2 -0,4 16 9 - - WZW 993,3 45 0 0,2
18.01.2018 15:00:00 2,6 0,9 15 8 - - W 993,2 23 18 1,4
18.01.2018 14:00:00 2,2 1,0 13 7 - - WZW 993,0 16 24 0,0
18.01.2018 13:00:00 2,3 0,5 15 8 - - WZW 992,5 45 30 0,0
18.01.2018 12:00:00 2,0 0,2 21 11 - - WZW 992,1 40 42 0,0
18.01.2018 11:00:00 1,9 0,6 16 9 - - WZW 991,9 35 12 0,0

tt = temperatuur
td = dauwpunt
ff = windsnelheid
fx = windstoten
dd = windrichting
ppp = luchtdruk
vv = zicht
sd = Zonneschijnduur
rr = neerslag

Weerstations in de omgeving